Location: Unspecified
(40.7945°N, 0.0000°E)
Time: 03:06:46
(UTC+00:00)

Altair - Pass Details

Date: 24 January 2021
Orbit: 1501 x 1682 km, 47.2° (Epoch: 01 March)

Event Time Altitude Azimuth Distance (km) Brightness Sun altitude
Rises 04:56:44 0° 231° (SW) 4,838 - -26.4°
Reaches altitude 10° 04:59:49 10° 230° (SW) 3,874 - -25.9°
Exits shadow 05:03:05 25° 228° (SW) 2,901 8.5 -25.2°
Maximum altitude 05:09:46 77° 147° (SSE) 1,711 7.7 -24.0°
Drops below altitude 10° 05:19:56 10° 64° (ENE) 3,949 10.4 -22.1°
Sets 05:23:07 0° 63° (ENE) 4,935 11.0 -21.5°
